Madison, SD

12:36 PM CDT on September 30, 2016 (GMT -0500)
Madison Municipal

Weather History for KMDS - December, 2013

Change the Weather History Date:

Monday, December 2, 2013

  Actual Average Record
Temperature  
Mean Temperature 37 °F -  
Max Temperature 48 °F 29 °F 59 °F (2012)
Min Temperature 26 °F 12 °F 8 °F (2015)
Degree Days  
Heating Degree Days 28    
Moisture  
Dew Point 30 °F    
Average Humidity 84    
Maximum Humidity 100    
Minimum Humidity 54    
Precipitation  
Precipitation 0.00 in - - ()
Sea Level Pressure  
Sea Level Pressure 29.56 in    
Wind  
Wind Speed 10 mph (SW)    
Max Wind Speed 17 mph    
Max Gust Speed 21 mph    
Visibility 10 miles    
Events Rain    
Averages and records for this station are not official NWS values.
T = Trace of Precipitation, MM = Missing Value Source: NWS Daily Summary

Daily Weather History Graph

Daily Weather History Graph

Search for Another Location

Airport or City:

Trip Planner

Search our weather history database for the weather conditions in past years. The results will help you decide how hot, cold, wet, or windy it might be!

Date:

Astronomy

Dec. 02, 2013 Rise Set
Actual Time 7:44 AM CST 4:51 PM CST
Civil Twilight 7:11 AM CST 5:23 PM CST
Nautical Twilight 6:35 AM CST 5:59 PM CST
Astronomical Twilight 6:01 AM CST 6:34 PM CST
Moon 7:09 AM CST (12/2) 4:56 PM CST (12/2)
Length of Visible Light 10h 11m
Length of Day
9h 06m
Waning Crescent, 0% of the Moon is Illuminated
Dec 2
Waning Crescent
Dec 2
New
Dec 9
First Quarter
Dec 17
Full
Dec 25
Last Quarter

Hourly Weather History & Observations

Time (CST) Temp. Windchill Dew Point Humidity Pressure Visibility Wind Dir Wind Speed Gust Speed Precip Events Conditions
12:10 AM 28.4 °F 18.5 °F 28.4 °F 100% 29.77 in 10.0 mi South 11.5 mph - N/A   Overcast
12:30 AM 30.2 °F 20.8 °F 28.4 °F 93% 29.76 in 10.0 mi South 11.5 mph - N/A   Overcast
12:50 AM 30.2 °F 20.8 °F 28.4 °F 93% 29.74 in 10.0 mi SSE 11.5 mph - N/A   Overcast
1:10 AM 30.2 °F 19.8 °F 28.4 °F 93% 29.73 in 10.0 mi South 13.8 mph - N/A   Overcast
1:30 AM 30.2 °F 21.3 °F 28.4 °F 93% 29.73 in 10.0 mi SSE 10.4 mph - N/A   Overcast
1:50 AM 30.2 °F 21.3 °F 28.4 °F 93% 29.72 in 10.0 mi South 10.4 mph - N/A   Overcast
2:10 AM 30.2 °F 21.3 °F 28.4 °F 93% 29.72 in 10.0 mi SSE 10.4 mph - N/A   Overcast
2:30 AM 30.2 °F 21.3 °F 28.4 °F 93% 29.72 in 10.0 mi South 10.4 mph - N/A   Overcast
2:50 AM 30.2 °F 21.9 °F 28.4 °F 93% 29.71 in 10.0 mi SSE 9.2 mph - N/A   Overcast
3:10 AM 30.2 °F 21.3 °F 28.4 °F 93% 29.69 in 10.0 mi SSE 10.4 mph - N/A   Overcast
3:30 AM 30.2 °F 21.9 °F 28.4 °F 93% 29.68 in 10.0 mi SE 9.2 mph - N/A   Overcast
3:50 AM 30.2 °F 21.9 °F 28.4 °F 93% 29.66 in 10.0 mi SSE 9.2 mph - N/A   Overcast
4:10 AM 30.2 °F 21.3 °F 30.2 °F 100% 29.66 in 10.0 mi SSE 10.4 mph - N/A   Overcast
4:30 AM 28.4 °F 18.5 °F 28.4 °F 100% 29.64 in 10.0 mi SSE 11.5 mph - N/A   Overcast
4:50 AM 28.4 °F 19.7 °F 28.4 °F 100% 29.63 in 10.0 mi SSE 9.2 mph - N/A   Overcast
5:10 AM 30.2 °F 21.3 °F 30.2 °F 100% 29.62 in 10.0 mi SE 10.4 mph - N/A   Overcast
5:30 AM 30.2 °F 22.6 °F 30.2 °F 100% 29.61 in 10.0 mi SSE 8.1 mph - N/A   Overcast
5:50 AM 30.2 °F 21.9 °F 30.2 °F 100% 29.59 in 10.0 mi SSE 9.2 mph - N/A   Overcast
6:10 AM 30.2 °F 22.6 °F 30.2 °F 100% 29.59 in 10.0 mi SSE 8.1 mph - N/A   Overcast
6:30 AM 30.2 °F 21.9 °F 30.2 °F 100% 29.58 in 10.0 mi South 9.2 mph - N/A   Overcast
6:50 AM 32.0 °F 23.6 °F 32.0 °F 100% 29.57 in 10.0 mi South 10.4 mph - N/A   Overcast
7:10 AM 32.0 °F 24.2 °F 32.0 °F 100% 29.56 in 10.0 mi South 9.2 mph - N/A   Overcast
7:30 AM 32.0 °F 24.8 °F 32.0 °F 100% 29.56 in 10.0 mi SSE 8.1 mph - N/A Rain Light Rain
7:50 AM 32.0 °F 24.2 °F 32.0 °F 100% 29.56 in 10.0 mi SSE 9.2 mph - N/A   Overcast
8:10 AM 32.0 °F 23.0 °F 32.0 °F 100% 29.55 in 10.0 mi South 11.5 mph - N/A   Overcast
8:30 AM 32.0 °F 23.6 °F 32.0 °F 100% 29.54 in 10.0 mi SSE 10.4 mph - N/A   Mostly Cloudy
8:50 AM 32.0 °F 22.5 °F 32.0 °F 100% 29.53 in 10.0 mi South 12.7 mph - N/A   Partly Cloudy
9:10 AM 32.0 °F 22.5 °F 32.0 °F 100% 29.53 in 10.0 mi SSE 12.7 mph - N/A   Clear
9:30 AM 32.0 °F 21.6 °F 32.0 °F 100% 29.53 in 10.0 mi South 15.0 mph - N/A   Clear
9:50 AM 35.6 °F 25.5 °F 32.0 °F 87% 29.53 in 10.0 mi South 17.3 mph 20.7 mph N/A   Clear
10:10 AM 35.6 °F 26.6 °F 32.0 °F 87% 29.53 in 10.0 mi South 13.8 mph - N/A   Clear
10:30 AM 35.6 °F 27.1 °F 32.0 °F 87% 29.53 in 10.0 mi South 12.7 mph - N/A   Clear
10:50 AM 37.4 °F 29.8 °F 32.0 °F 81% 29.54 in 10.0 mi SW 11.5 mph - N/A   Clear
11:10 AM 39.2 °F 32.0 °F 32.0 °F 75% 29.53 in 10.0 mi SW 11.5 mph 17.3 mph N/A   Clear
11:30 AM 39.2 °F 32.5 °F 32.0 °F 75% 29.52 in 10.0 mi SW 10.4 mph - N/A   Clear
11:50 AM 41.0 °F 34.7 °F 32.0 °F 70% 29.51 in 10.0 mi SW 10.4 mph - N/A   Clear
12:10 PM 41.0 °F 35.8 °F 32.0 °F 70% 29.50 in 10.0 mi SW 8.1 mph - N/A   Clear
12:30 PM 41.0 °F 35.8 °F 32.0 °F 70% 29.50 in 10.0 mi WSW 8.1 mph - N/A   Clear
12:50 PM 42.8 °F 38.6 °F 32.0 °F 66% 29.49 in 10.0 mi WSW 6.9 mph - N/A   Clear
1:10 PM 44.6 °F 42.2 °F 32.0 °F 61% 29.48 in 10.0 mi West 4.6 mph - N/A   Clear
1:30 PM 44.6 °F 40.7 °F 32.0 °F 61% 29.48 in 10.0 mi SW 6.9 mph - N/A   Clear
1:50 PM 46.4 °F 45.2 °F 32.0 °F 57% 29.47 in 10.0 mi West 3.5 mph - N/A   Clear
2:10 PM 46.4 °F 44.3 °F 32.0 °F 57% 29.47 in 10.0 mi SW 4.6 mph - N/A   Clear
2:30 PM 46.4 °F 43.5 °F 32.0 °F 57% 29.46 in 10.0 mi West 5.8 mph - N/A   Clear
2:50 PM 48.2 °F - 32.0 °F 54% 29.46 in 10.0 mi West 6.9 mph - N/A   Clear
3:10 PM 48.2 °F - 32.0 °F 54% 29.46 in 10.0 mi West 6.9 mph - N/A   Clear
3:30 PM 48.2 °F - 32.0 °F 54% 29.47 in 10.0 mi West 5.8 mph - N/A   Clear
3:50 PM 46.4 °F 43.5 °F 32.0 °F 57% 29.47 in 10.0 mi West 5.8 mph - N/A   Clear
4:10 PM 46.4 °F 42.9 °F 32.0 °F 57% 29.48 in 10.0 mi West 6.9 mph - N/A   Clear
4:30 PM 44.6 °F 41.4 °F 32.0 °F 61% 29.48 in 10.0 mi West 5.8 mph - N/A   Clear
4:50 PM 42.8 °F 38.0 °F 30.2 °F 61% 29.48 in 10.0 mi WSW 8.1 mph - N/A   Clear
5:10 PM 41.0 °F - 30.2 °F 65% 29.49 in 10.0 mi North - - N/A   Partly Cloudy
5:30 PM 41.0 °F 36.4 °F 30.2 °F 65% 29.50 in 10.0 mi West 6.9 mph - N/A   Scattered Clouds
5:50 PM 41.0 °F 35.8 °F 30.2 °F 65% 29.51 in 10.0 mi West 8.1 mph - N/A   Scattered Clouds
6:10 PM 41.0 °F 35.8 °F 30.2 °F 65% 29.51 in 10.0 mi West 8.1 mph - N/A   Partly Cloudy
6:30 PM 37.4 °F 31.4 °F 28.4 °F 70% 29.52 in 10.0 mi WNW 8.1 mph - N/A   Clear
6:50 PM 35.6 °F 29.2 °F 28.4 °F 75% 29.53 in 10.0 mi WNW 8.1 mph - N/A   Clear
7:10 PM 35.6 °F 30.7 °F 28.4 °F 75% 29.52 in 10.0 mi West 5.8 mph - N/A   Clear
7:30 PM 32.0 °F 24.2 °F 26.6 °F 80% 29.53 in 10.0 mi NW 9.2 mph - N/A   Clear
7:50 PM 32.0 °F 24.8 °F 28.4 °F 87% 29.53 in 10.0 mi NW 8.1 mph - N/A   Clear
8:10 PM 33.8 °F 25.8 °F 28.4 °F 81% 29.54 in 10.0 mi NW 10.4 mph - N/A   Clear
8:30 PM 32.0 °F 24.8 °F 28.4 °F 87% 29.53 in 10.0 mi NW 8.1 mph - N/A   Clear
8:50 PM 32.0 °F 24.2 °F 28.4 °F 87% 29.54 in 10.0 mi NNW 9.2 mph - N/A   Clear
9:10 PM 30.2 °F 21.9 °F 28.4 °F 93% 29.54 in 10.0 mi NNW 9.2 mph - N/A   Clear
9:30 PM 28.4 °F 19.1 °F 28.4 °F 100% 29.54 in 10.0 mi NW 10.4 mph - N/A   Clear
9:50 PM 28.4 °F 19.1 °F 28.4 °F 100% 29.55 in 10.0 mi NW 10.4 mph - N/A   Partly Cloudy
10:10 PM 28.4 °F 20.4 °F 28.4 °F 100% 29.54 in 10.0 mi NNW 8.1 mph - N/A   Scattered Clouds
10:30 PM 26.6 °F 22.6 °F 26.6 °F 100% 29.55 in 10.0 mi NW 3.5 mph - N/A   Partly Cloudy
10:50 PM 26.6 °F 18.2 °F 26.6 °F 100% 29.56 in 10.0 mi NNW 8.1 mph - N/A   Partly Cloudy
11:10 PM 26.6 °F 17.5 °F 26.6 °F 100% 29.55 in 10.0 mi North 9.2 mph - N/A   Partly Cloudy
11:30 PM 26.6 °F 17.5 °F 26.6 °F 100% 29.55 in 10.0 mi North 9.2 mph - N/A   Clear
11:50 PM 26.6 °F 16.2 °F 26.6 °F 100% 29.57 in 6.0 mi North 11.5 mph - N/A   Scattered Clouds